When you browse on this site, cookies collect data to enhance your experience and personalize the content and advertising you see.
Visit our Privacy Policy to learn more. By continuing to use the site, you agree to this use of cookies and data.
  • In Hungary
  • List of Countries
  • For 7 days
  • Water Temperature
  • Satellite Maps
  • Weather Map
  • News
  • Weather Widgets
  • user-avatar
    Login

    Hourly Weather Golaya Pristan

    Today, 22 January, Tuesday

    Time Temperature Precipitation Wind Pressure Humidity
    00:00 -7°C° 0 mm 5 mps 766 mmHg 79%
    01:00 -7°C° 0 mm 4 mps 767 mmHg 78%
    02:00 -7°C° 0 mm 4 mps 767 mmHg 74%
    03:00 -6°C° 0 mm 3 mps 767 mmHg 73%
    04:00 -6°C° 0 mm 3 mps 767 mmHg 71%
    05:00 -6°C° 0 mm 3 mps 767 mmHg 70%
    06:00 -5°C° 0 mm 2 mps 767 mmHg 70%
    07:00 -5°C° 0 mm 2 mps 767 mmHg 69%
    08:00 -5°C° 0 mm 2 mps 767 mmHg 67%
    09:00 -5°C° 0 mm 2 mps 767 mmHg 62%
    10:00 -4°C° 0 mm 2 mps 767 mmHg 58%
    11:00 -3°C° 0 mm 2 mps 767 mmHg 53%
    12:00 -3°C° 0 mm 2 mps 767 mmHg 51%
    13:00 -2°C° 0 mm 2 mps 766 mmHg 48%
    14:00 -2°C° 0 mm 2 mps 766 mmHg 47%
    15:00 -2°C° 0 mm 2 mps 766 mmHg 49%
    16:00 -2°C° 0 mm 2 mps 766 mmHg 51%
    17:00 -3°C° 0 mm 2 mps 766 mmHg 54%
    18:00 -4°C° 0 mm 3 mps 765 mmHg 56%
    19:00 -4°C° 0 mm 4 mps 765 mmHg 58%
    20:00 -4°C° 0 mm 4 mps 764 mmHg 59%
    21:00 -5°C° 0 mm 5 mps 764 mmHg 64%
    22:00 -5°C° 0 mm 5 mps 764 mmHg 69%
    23:00 -5°C° 0 mm 5 mps 763 mmHg 73%

    Tomorrow, 23 January, Wednesday

    Time Temperature Precipitation Wind Pressure Humidity
    00:00 -4°C° 0.1 mm 5 mps 763 mmHg 76%
    01:00 -4°C° 0.1 mm 6 mps 762 mmHg 78%
    02:00 -4°C° 0.1 mm 6 mps 762 mmHg 80%
    03:00 -4°C° 0.2 mm 6 mps 761 mmHg 81%
    04:00 -4°C° 0.2 mm 7 mps 761 mmHg 81%
    05:00 -4°C° 0.2 mm 7 mps 760 mmHg 82%
    06:00 -4°C° 0.2 mm 7 mps 760 mmHg 83%
    07:00 -3°C° 0.2 mm 7 mps 759 mmHg 85%
    08:00 -4°C° 0.2 mm 8 mps 759 mmHg 86%
    09:00 -4°C° 0.2 mm 8 mps 758 mmHg 86%
    10:00 -2°C° 0.2 mm 8 mps 758 mmHg 85%
    11:00 -2°C° 0.2 mm 8 mps 757 mmHg 85%
    12:00 -1°C° 0.4 mm 7 mps 757 mmHg 85%
    13:00 0°C° 0.4 mm 7 mps 756 mmHg 85%
    14:00 +1°C° 0.4 mm 6 mps 755 mmHg 85%
    15:00 +2°C° 0.5 mm 6 mps 755 mmHg 87%
    16:00 +2°C° 0.5 mm 6 mps 754 mmHg 90%
    17:00 +3°C° 0.5 mm 6 mps 754 mmHg 92%
    18:00 +3°C° 0.1 mm 6 mps 754 mmHg 91%
    19:00 +3°C° 0.1 mm 7 mps 754 mmHg 89%
    20:00 +4°C° 0.1 mm 7 mps 753 mmHg 87%
    21:00 +3°C° 0 mm 6 mps 754 mmHg 88%
    22:00 +3°C° 0 mm 6 mps 754 mmHg 89%
    23:00 +3°C° 0 mm 5 mps 754 mmHg 90%

    Day after tomorrow, 24 January, Thursday

    Time Temperature Precipitation Wind Pressure Humidity
    00:00 +3°C° 0 mm 5 mps 754 mmHg 90%
    01:00 +4°C° 0 mm 4 mps 754 mmHg 91%
    02:00 +4°C° 0 mm 4 mps 754 mmHg 92%
    03:00 +4°C° 1.3 mm 4 mps 754 mmHg 93%
    04:00 +5°C° 1.3 mm 4 mps 754 mmHg 95%
    05:00 +5°C° 1.3 mm 4 mps 753 mmHg 96%
    06:00 +5°C° 0.6 mm 4 mps 753 mmHg 96%
    07:00 +5°C° 0.6 mm 4 mps 754 mmHg 96%
    08:00 +5°C° 0.6 mm 4 mps 754 mmHg 95%
    09:00 +5°C° 0.1 mm 3 mps 754 mmHg 94%
    10:00 +7°C° 0.1 mm 3 mps 754 mmHg 93%
    11:00 +8°C° 0.1 mm 2 mps 754 mmHg 92%
    12:00 +9°C° 0 mm 2 mps 753 mmHg 89%
    13:00 +9°C° 0 mm 2 mps 753 mmHg 86%
    14:00 +10°C° 0 mm 2 mps 752 mmHg 83%
    15:00 +9°C° 0 mm 3 mps 752 mmHg 84%
    16:00 +8°C° 0 mm 3 mps 752 mmHg 86%
    17:00 +7°C° 0 mm 3 mps 752 mmHg 88%
    18:00 +5°C° 0 mm 3 mps 752 mmHg 88%
    19:00 +4°C° 0 mm 4 mps 752 mmHg 89%
    20:00 +4°C° 0 mm 4 mps 752 mmHg 89%
    21:00 +3°C° 0 mm 4 mps 752 mmHg 90%
    22:00 +3°C° 0 mm 4 mps 752 mmHg 91%
    23:00 +2°C° 0 mm 3 mps 752 mmHg 92%

    25 January, Friday

    Time Temperature Precipitation Wind Pressure Humidity
    00:00 +2°C° 0 mm 3 mps 752 mmHg 92%
    01:00 +2°C° 0 mm 3 mps 752 mmHg 92%
    02:00 +3°C° 0 mm 2 mps 752 mmHg 93%
    03:00 +3°C° 0 mm 2 mps 752 mmHg 93%
    04:00 +2°C° 0 mm 2 mps 752 mmHg 93%
    05:00 +2°C° 0 mm 2 mps 752 mmHg 94%
    06:00 +2°C° 0 mm 2 mps 753 mmHg 94%
    07:00 +2°C° 0 mm 2 mps 753 mmHg 94%
    08:00 +2°C° 0 mm 2 mps 753 mmHg 94%
    09:00 +3°C° 0 mm 2 mps 753 mmHg 91%
    10:00 +4°C° 0 mm 2 mps 754 mmHg 87%
    11:00 +5°C° 0 mm 2 mps 754 mmHg 84%
    12:00 +7°C° 0 mm 1 mps 754 mmHg 83%
    13:00 +7°C° 0 mm 1 mps 754 mmHg 82%
    14:00 +8°C° 0 mm 1 mps 754 mmHg 80%
    15:00 +7°C° 0 mm 1 mps 754 mmHg 83%
    16:00 +7°C° 0 mm 1 mps 755 mmHg 85%
    17:00 +6°C° 0 mm 1 mps 755 mmHg 88%
    18:00 +5°C° 0 mm 2 mps 755 mmHg 89%
    19:00 +5°C° 0 mm 2 mps 755 mmHg 90%
    20:00 +5°C° 0 mm 2 mps 756 mmHg 90%
    21:00 +5°C° 0 mm 2 mps 755 mmHg 91%
    22:00 +4°C° 0 mm 2 mps 755 mmHg 92%
    23:00 +4°C° 0 mm 2 mps 755 mmHg 93%

    26 January, Saturday

    Time Temperature Precipitation Wind Pressure Humidity
    00:00 +3°C° 0 mm 3 mps 755 mmHg 93%
    01:00 +3°C° 0 mm 3 mps 755 mmHg 93%
    02:00 +2°C° 0 mm 3 mps 755 mmHg 93%
    03:00 +2°C° 0 mm 3 mps 755 mmHg 92%
    04:00 +1°C° 0 mm 4 mps 754 mmHg 92%
    05:00 +1°C° 0 mm 4 mps 754 mmHg 92%
    06:00 +1°C° 0 mm 4 mps 754 mmHg 92%
    07:00 +1°C° 0 mm 4 mps 754 mmHg 92%
    08:00 +1°C° 0 mm 5 mps 754 mmHg 92%
    09:00 +2°C° 0 mm 5 mps 754 mmHg 90%
    10:00 +3°C° 0 mm 5 mps 754 mmHg 87%
    11:00 +5°C° 0 mm 5 mps 754 mmHg 85%
    12:00 +5°C° 0 mm 5 mps 754 mmHg 83%
    13:00 +6°C° 0 mm 5 mps 753 mmHg 80%
    14:00 +7°C° 0 mm 5 mps 753 mmHg 78%
    15:00 +7°C° 0 mm 5 mps 753 mmHg 81%
    16:00 +6°C° 0 mm 5 mps 753 mmHg 84%
    17:00 +6°C° 0 mm 5 mps 753 mmHg 87%
    18:00 +5°C° 0 mm 5 mps 753 mmHg 88%
    19:00 +4°C° 0 mm 6 mps 753 mmHg 88%
    20:00 +4°C° 0 mm 6 mps 754 mmHg 89%
    21:00 +3°C° 0.1 mm 6 mps 754 mmHg 89%
    22:00 +3°C° 0.1 mm 6 mps 754 mmHg 90%
    23:00 +3°C° 0.1 mm 6 mps 754 mmHg 90%

    27 January, Sunday

    Time Temperature Precipitation Wind Pressure Humidity
    00:00 +2°C° 0.1 mm 6 mps 754 mmHg 89%
    01:00 +2°C° 0.1 mm 6 mps 754 mmHg 89%
    02:00 +2°C° 0.1 mm 6 mps 754 mmHg 89%
    03:00 +2°C° 0.1 mm 6 mps 754 mmHg 89%
    04:00 +2°C° 0.1 mm 6 mps 754 mmHg 88%
    05:00 +1°C° 0.1 mm 6 mps 754 mmHg 88%
    06:00 +1°C° 0.1 mm 6 mps 754 mmHg 88%
    07:00 +1°C° 0.1 mm 6 mps 755 mmHg 88%
    08:00 +1°C° 0.1 mm 6 mps 755 mmHg 87%
    09:00 +1°C° 0.1 mm 6 mps 755 mmHg 86%
    10:00 +1°C° 0.1 mm 6 mps 755 mmHg 85%
    11:00 +1°C° 0.1 mm 6 mps 755 mmHg 84%
    12:00 +2°C° 0.1 mm 6 mps 755 mmHg 83%
    13:00 +2°C° 0.1 mm 6 mps 755 mmHg 82%
    14:00 +2°C° 0.1 mm 6 mps 755 mmHg 81%
    15:00 0°C° 0 mm 7 mps 756 mmHg 81%
    16:00 -1°C° 0 mm 7 mps 756 mmHg 81%
    17:00 -1°C° 0 mm 7 mps 756 mmHg 81%
    18:00 -2°C° 0 mm 7 mps 757 mmHg 80%
    19:00 -2°C° 0 mm 8 mps 757 mmHg 80%
    20:00 -4°C° 0 mm 8 mps 758 mmHg 79%
    21:00 -4°C° 0 mm 8 mps 758 mmHg 79%
    22:00 -5°C° 0 mm 8 mps 759 mmHg 78%
    23:00 -6°C° 0 mm 8 mps 759 mmHg 77%
    Show more